Probability
2 2 1 0 0 0 0 0 0 0 0 0 0 0 0 0 0 0 0 0 0 0 0 0 0 0 0 0 0 0 0 0 0 0 0 0 0 0 0 0 0 0 0 0
1 1 0 0 0 0 0 0 0 0 0 0 0 0 0 0 0 0 0 0 0 0 0 0 0 0 0 0 0 0 0 0 0 0 0 0 0 0 0 0 0 0 0 0
0 0 0 0 0 0 0 0 0 0 0 0 0 0 0 0 0 0 0 0 0 0 0 0 0 0 0 0 0 0 0 0 0 0 0 0 0 0 0 0 0 0 0 0
0 0 0 0 0 0 0 0 0 0 0 0 0 0 0 0 0 0 0 0 0 0 0 0 0 0 0 0 0 0 0 0 0 0 0 0 0 0 0 0 0 0 0 0
0 0 0 0 0 0 0 0 0 0 0 0 0 0 0 0 0 0 0 0 0 0 0 0 0 0 0 0 0 0 0 0 0 0 0 0 0 0 0 0 0 0 0 0
0 0 0 0 0 0 0 0 0 0 0 0 0 0 0 0 0 0 0 0 0 0 0 0 0 0 0 0 0 0 0 0 0 0 0 0 0 0 0 0 0 0 0 0
0 0 0 0 0 0 0 0 0 0 0 0 0 0 0 0 0 0 0 0 0 0 0 0 0 0 0 0 0 0 0 0 0 0 0 0 0 0 0 0 0 0 0 0
0 0 0 0 0 0 0 0 0 0 0 0 0 0 0 0 0 0 0 0 0 0 0 0 0 0 0 0 0 0 0 0 0 0 0 0 0 0 0 0 0 0 0 0
0 0 0 0 0 0 0 0 0 0 0 0 0 0 0 0 0 0 0 0 0 0 0 0 0 0 0 0 0 0 0 0 0 0 0 0 0 0 0 0 0 0 0 0
0 0 0 0 0 0 0 0 0 0 0 0 0 0 0 0 0 0 0 0 0 0 0 0 0 0 0 0 0 0 0 0 0 0 0 0 0 0 0 0 0 0 0 0
0 0 0 0 0 0 0 0 0 0 0 0 0 0 0 0 0 0 0 0 0 0 0 0 0 0 0 0 0 0 0 0 0 0 0 0 0 0 0 0 0 0 0 0
0 0 0 0 0 0 0 0 0 0 0 0 0 0 0 0 0 0 0 0 0 0 0 0 0 0 0 0 0 0 0 0 0 0 0 0 0 0 0 0 0 0 0 0
0 0 0 0 0 0 0 0 0 0 0 0 0 0 0 0 0 0 0 0 0 0 0 0 0 0 0 0 0 0 0 0 0 0 0 0 0 0 0 0 0 0 0 0
0 0 0 0 0 0 0 0 0 0 0 0 0 0 0 0 0 0 0 0 0 0 0 0 0 0 0 0 0 0 0 0 0 0 0 0 0 0 0 0 0 0 0 0
0 0 0 0 0 0 0 0 0 0 0 0 0 0 0 0 0 0 0 0 0 0 0 0 0 0 0 0 0 0 0 0 0 0 0 0 0 0 0 0 0 0 0 0
0 0 0 0 0 0 0 0 0 0 0 0 0 0 0 0 0 0 0 0 0 0 0 0 0 0 0 0 0 0 0 0 0 0 0 0 0 0 0 0 0 0 0 0
0 0 0 0 0 0 0 0 0 0 0 0 0 0 0 0 0 0 0 0 0 0 0 0 0 0 0 0 0 0 0 0 0 0 0 0 0 0 0 0 0 0 0 0
0 0 0 0 0 0 0 0 0 0 0 0 0 0 0 0 0 0 0 0 0 0 0 0 0 0 0 0 0 0 0 0 0 0 0 0 0 0 0 0 0 0 0 0
0 0 0 0 0 0 0 0 0 0 0 0 0 0 0 0 0 0 0 0 0 0 0 0 0 0 0 0 0 0 0 0 0 0 0 0 0 0 0 0 0 0 0 0
0 0 0 0 0 0 0 0 0 0 0 0 0 0 0 0 0 0 0 0 0 0 0 0 0 0 0 0 0 0 0 0 0 0 0 0 0 0 0 0 0 0 0 0
0 0 0 0 0 0 0 0 0 0 0 0 0 0 0 0 0 0 0 0 0 0 0 0 0 0 0 0 0 0 0 0 0 0 0 0 0 0 0 0 0 0 0 0
0 0 0 0 0 0 0 0 0 0 0 0 0 0 0 0 0 0 0 0 0 0 0 0 0 0 0 0 0 0 0 0 0 0 0 0 0 0 0 0 0 0 0 0
0 0 0 0 0 0 0 0 0 0 0 0 0 0 0 0 0 0 0 0 0 0 0 0 0 0 0 0 0 0 0 0 0 0 0 0 0 0 0 0 0 0 0 0
0 0 0 0 0 0 0 0 0 0 0 0 0 0 0 0 0 0 0 0 0 0 0 0 0 0 0 0 0 0 0 0 0 0 0 0 0 0 0 0 0 0 0 0
0 0 0 0 0 0 0 0 0 0 0 0 0 0 0 0 0 0 0 0 0 0 0 0 0 0 0 0 0 0 0 0 0 0 0 0 0 0 0 0 0 0 0 0
0 0 0 0 0 0 0 0 0 0 0 0 0 0 0 0 0 0 0 0 0 0 0 0 0 0 0 0 0 0 0 0 0 0 0 0 0 0 0 0 0 0 0 0
Wind_Speed
6 8 14 14 14 5 7 7 7 6 4 5 9 12 13 9 6 8 9 9 10 11 11 8 8 7 7 7 8 10 10 10 8 6 7 8 10 9 8 8 9 10 10 10
7 16 12 6 7 7 6 7 7 3 2 4 6 12 11 10 9 10 11 11 11 10 9 9 8 6 7 8 9 10 11 10 10 9 7 5 5 5 6 6 7 9 10 10
16 6 9 8 8 11 12 12 9 5 2 2 4 11 9 9 8 9 10 10 10 11 12 11 9 8 7 8 9 9 11 10 11 10 5 3 2 2 3 6 8 10 11 11
12 7 8 10 11 12 14 8 7 6 4 5 4 10 8 7 8 10 11 10 11 12 12 11 9 8 8 8 7 8 9 9 9 9 7 9 9 9 9 8 7 7 9 10
10 9 10 13 11 12 6 6 8 8 7 7 6 9 9 4 8 9 10 11 11 11 10 10 9 9 8 6 6 7 7 7 7 8 10 10 11 10 6 4 6 7 7 9
5 5 9 9 7 9 6 5 3 4 6 15 14 11 12 8 10 8 8 9 9 9 8 8 8 6 6 5 4 4 5 6 6 8 9 10 12 10 7 7 7 6 6 6
8 6 5 5 7 7 8 7 5 8 10 12 8 11 13 8 9 10 10 9 8 7 6 6 6 5 5 4 3 3 4 5 5 7 8 10 11 10 10 8 7 6 5 6
13 11 12 9 11 11 13 12 10 9 8 5 6 13 11 6 6 6 7 6 5 5 5 5 5 4 4 3 3 2 3 4 4 5 7 7 8 7 7 8 7 6 6 6
12 10 6 9 7 12 11 13 9 3 2 4 8 8 9 4 5 6 6 5 6 6 5 4 3 3 3 3 2 2 1 2 2 3 4 5 6 6 6 6 5 5 5 5
6 6 5 6 4 8 9 9 6 9 8 10 8 8 8 5 8 7 6 6 6 5 3 3 2 2 2 2 2 2 1 1 1 1 2 2 3 4 5 4 5 5 6 5
6 5 3 7 14 15 10 10 9 7 7 8 8 9 8 10 9 8 8 6 5 4 3 2 2 2 2 2 3 3 3 2 2 2 1 1 2 2 2 3 5 5 5 5
7 5 6 9 6 7 11 13 13 10 9 7 7 11 4 7 6 6 5 4 3 3 2 2 1 1 2 3 3 3 3 3 3 2 2 2 2 2 2 3 4 4 4 4
10 7 6 4 5 5 9 11 13 9 6 7 9 10 2 3 4 4 4 4 3 2 2 1 1 1 1 2 3 3 3 4 4 4 3 4 4 4 4 4 4 4 4 4
10 7 11 14 7 8 9 11 13 14 12 13 15 13 9 6 5 5 5 4 3 3 2 2 2 1 1 1 2 3 3 4 4 4 4 4 5 5 4 5 5 4 4 5
8 9 10 9 6 6 9 12 15 18 18 15 14 17 18 13 9 7 6 5 4 4 4 4 3 2 1 1 2 2 3 3 3 4 4 4 4 4 4 5 5 5 5 5
8 8 8 11 9 8 8 12 16 19 17 18 15 18 15 11 7 6 7 7 7 7 6 5 3 2 1 1 1 2 2 3 3 3 3 4 4 5 5 5 6 6 5 5
8 8 8 10 9 7 15 16 16 14 13 13 20 23 13 9 10 11 10 9 9 8 7 6 5 4 2 1 0 1 1 2 2 3 3 4 4 5 5 6 5 6 6 6
8 9 7 6 7 18 13 11 16 17 16 15 13 12 12 13 10 7 8 9 9 8 6 5 4 3 1 1 0 0 1 1 2 2 3 4 5 5 5 5 5 6 5 6
11 10 6 6 10 11 9 7 11 15 17 16 17 16 12 8 3 5 5 6 7 6 4 3 3 2 1 1 0 0 1 1 2 2 3 4 4 4 5 5 6 6 6 6
10 9 8 7 8 10 11 7 6 7 12 11 13 15 13 7 7 10 4 4 3 2 2 2 2 2 1 0 0 1 0 1 2 3 3 4 4 4 4 5 5 5 5 6
8 9 13 11 10 9 8 3 7 10 11 6 10 12 10 10 10 4 3 3 3 2 2 2 3 2 1 0 0 1 1 2 3 3 3 4 4 4 4 5 4 5 5 5
11 9 10 9 10 12 6 8 11 8 3 2 4 5 6 6 3 2 3 3 2 2 2 2 2 1 0 0 1 1 2 3 3 3 3 4 4 4 3 4 5 4 4 5
9 9 7 9 9 3 4 6 4 2 4 3 3 2 4 4 3 3 2 2 2 2 1 1 0 0 1 1 0 2 3 3 3 3 4 4 4 4 3 4 4 4 4 4
4 2 4 5 6 3 2 1 0 1 2 2 2 2 2 3 3 2 2 2 1 1 1 1 1 1 2 2 2 2 3 3 3 3 4 4 4 4 4 3 3 3 4 4
5 4 5 7 4 2 3 3 2 2 3 3 3 3 2 3 2 2 2 1 1 0 1 1 0 1 2 2 3 3 4 3 3 4 4 4 3 4 4 4 3 5 4 4
4 5 6 6 4 5 4 3 3 3 3 3 2 2 2 2 2 2 1 1 1 1 1 1 1 2 2 2 3 3 3 3 3 3 3 3 3 3 4 5 6 7 7 9
Wind_Direction
176 197 210 206 206 207 178 187 209 222 216 200 232 249 258 258 248 253 256 255 255 256 259 259 252 243 235 229 222 221 218 217 202 197 204 212 221 221 221 221 218 214 213 210
191 221 217 193 201 209 203 214 224 253 240 216 256 263 260 252 240 235 243 248 250 256 269 265 258 245 232 231 227 225 223 218 208 208 204 202 204 215 219 216 216 215 215 213
209 209 177 181 194 207 216 217 216 222 311 272 297 283 255 254 238 242 241 243 246 246 255 260 258 250 236 233 229 226 224 219 214 209 193 182 179 208 205 216 221 219 217 216
226 216 176 186 201 197 228 206 198 207 224 251 211 273 260 241 250 243 244 244 245 247 250 254 256 256 244 239 232 226 225 220 216 203 197 200 208 220 224 222 223 217 214 219
216 189 189 202 203 186 206 171 188 203 217 250 224 257 268 215 246 248 242 241 246 247 247 252 254 253 253 245 233 227 223 220 212 202 206 209 221 230 233 222 224 223 218 220
227 195 197 204 192 183 151 138 175 193 213 245 226 230 265 208 219 230 232 235 244 251 252 255 260 263 267 262 243 228 218 223 214 205 207 211 221 228 229 228 229 229 226 223
216 221 213 166 158 170 167 167 201 213 218 240 193 217 252 215 210 211 223 233 241 249 254 262 270 274 272 275 260 234 217 228 219 208 211 215 222 226 229 233 235 236 235 233
203 216 200 190 184 185 193 190 202 211 219 247 192 226 250 228 221 224 229 234 249 260 258 263 271 275 279 283 279 253 229 234 226 214 218 218 221 224 232 234 235 235 239 241
196 223 185 193 176 166 182 208 208 213 239 249 236 258 293 264 251 241 241 241 248 255 262 271 283 291 295 301 300 276 249 256 251 230 225 223 223 226 235 240 238 242 245 247
173 206 210 185 164 202 185 166 168 202 214 235 244 235 234 212 225 234 235 235 245 255 261 274 290 307 314 315 326 359 24 330 310 282 244 243 237 236 241 242 244 248 251 249
180 188 193 178 193 196 181 189 193 198 203 211 245 250 217 203 205 210 220 226 238 248 255 261 286 306 334 5 14 15 15 18 11 359 348 339 313 290 271 258 258 258 258 254
184 182 213 221 224 207 198 202 194 204 215 211 234 256 223 201 206 200 213 228 239 250 258 258 278 333 17 19 19 21 15 19 7 5 14 5 358 358 341 313 303 296 283 275
169 190 210 221 225 210 212 212 210 214 208 213 227 256 254 202 211 210 213 228 242 254 255 278 305 339 6 5 6 15 14 13 13 20 26 20 10 1 344 330 325 323 310 301
185 198 213 219 208 182 203 213 209 210 225 233 233 249 255 241 234 233 228 230 239 246 242 243 253 269 326 356 11 22 16 14 18 25 29 21 6 355 343 335 332 329 324 316
197 219 229 239 225 192 204 212 213 219 225 232 238 241 248 241 231 229 227 229 233 240 240 234 231 239 278 348 10 20 18 15 20 30 29 12 359 355 353 348 341 336 332 324
197 215 220 241 231 218 228 224 221 225 229 235 244 252 249 246 227 225 227 223 231 237 234 228 216 211 216 241 350 18 13 5 16 30 18 3 359 358 357 348 342 338 335 330
196 196 206 236 228 222 234 223 222 225 220 218 235 246 247 242 227 221 223 223 228 232 224 213 211 210 212 213 211 319 343 5 23 24 14 4 359 355 348 343 343 340 335 331
205 205 207 222 210 233 238 214 213 224 230 222 229 243 240 237 238 229 217 215 221 222 216 214 211 209 211 172 108 344 20 27 28 16 6 359 354 345 337 338 338 334 329 326
209 205 206 207 231 249 262 224 198 211 235 225 229 240 244 239 252 255 225 213 214 209 206 208 202 185 169 164 137 45 39 22 16 358 349 342 335 328 328 330 329 327 325 322
209 205 211 211 218 228 240 225 193 183 243 232 218 232 237 209 235 250 210 186 185 173 162 155 129 111 139 197 140 133 43 18 331 319 317 315 314 311 312 312 315 317 317 312
191 204 215 223 231 243 242 210 139 185 232 226 208 220 216 211 226 230 151 142 153 148 142 133 129 138 172 214 144 171 272 284 293 305 309 311 309 305 302 304 307 310 310 309
191 199 209 209 223 239 208 155 184 213 212 193 197 208 204 208 198 165 151 142 140 128 106 112 139 171 204 142 157 237 270 294 314 312 309 310 309 306 306 303 305 307 306 305
204 201 197 203 220 234 170 192 208 165 178 192 188 203 181 179 185 173 164 155 151 150 132 110 167 275 357 5 325 268 293 322 322 317 311 308 308 307 304 300 303 307 303 299
237 204 197 230 244 232 216 234 326 123 156 152 140 129 135 159 163 155 158 157 160 161 139 98 82 23 345 353 354 326 326 333 325 312 310 311 312 314 314 308 300 293 293 294
219 195 206 230 238 248 243 229 199 135 106 95 85 92 124 138 145 156 167 175 175 149 39 67 89 295 321 344 346 342 339 336 323 311 308 311 310 309 309 305 295 291 286 281
203 200 206 230 210 208 219 181 162 155 157 149 134 105 81 123 154 149 160 139 96 56 32 17 348 334 327 329 326 333 333 324 308 306 308 309 310 311 310 308 306 300 296 302